This is the latest recevied weather packets stored in our database for station/object VE8SKI. If no packets are shown the sender has not sent any weather packets the latest 10 day(s).
| Time | Temp. | Humidity | Pressure | Rain* | Wind** | Luminosity | Snow |
|---|---|---|---|---|---|---|---|
| 1778064517 | 2.78° C | 56% | 1016.3 hPa | 0 mm | 4.47 m/s, 162° | - | - |
| 1778064217 | 2.78° C | 56% | 1016.3 hPa | 0 mm | 3.13 m/s, 190° | - | - |
| 1778063918 | 2.78° C | 55% | 1016.4 hPa | 0 mm | 4.02 m/s, 156° | - | - |
| 1778063618 | 2.78° C | 56% | 1016.4 hPa | 0 mm | 4.92 m/s, 173° | - | - |
| 1778063318 | 2.78° C | 55% | 1016.4 hPa | 0 mm | 4.02 m/s, 184° | - | - |
| 1778063016 | 2.78° C | 56% | 1016.4 hPa | 0 mm | 4.47 m/s, 233° | - | - |
| 1778062733 | 2.78° C | 56% | 1016.5 hPa | 0 mm | 3.58 m/s, 195° | - | - |
| 1778062417 | 2.78° C | 55% | 1016.5 hPa | 0 mm | 4.47 m/s, 205° | - | - |
| 1778062117 | 2.78° C | 56% | 1016.5 hPa | 0 mm | 3.58 m/s, 229° | - | - |
| 1778061818 | 2.78° C | 56% | 1016.6 hPa | 0 mm | 4.02 m/s, 121° | - | - |
| 1778061518 | 2.78° C | 55% | 1016.6 hPa | 0 mm | 4.02 m/s, 172° | - | - |
| 1778061216 | 2.78° C | 55% | 1016.6 hPa | 0 mm | 3.58 m/s, 204° | - | - |
| 1778060916 | 2.78° C | 56% | 1016.6 hPa | 0 mm | 4.02 m/s, 221° | - | - |
| 1778060617 | 2.78° C | 56% | 1016.7 hPa | 0 mm | 3.13 m/s, 198° | - | - |
| 1778060317 | 3.33° C | 55% | 1016.7 hPa | 0 mm | 4.47 m/s, 212° | - | - |
| 1778060018 | 3.33° C | 55% | 1016.7 hPa | 0 mm | 4.47 m/s, 239° | - | - |
| 1778059718 | 3.33° C | 56% | 1016.8 hPa | 0 mm | 4.47 m/s, 207° | - | - |
| 1778059416 | 3.33° C | 54% | 1016.7 hPa | 0 mm | 4.02 m/s, 239° | - | - |
| 1778059116 | 3.33° C | 54% | 1016.7 hPa | 0 mm | 4.47 m/s, 350° | - | - |
| 1778058816 | 3.33° C | 55% | 1016.7 hPa | 0 mm | 4.92 m/s, 246° | - | - |
| 1778058517 | 3.33° C | 56% | 1016.8 hPa | 0 mm | 4.02 m/s, 172° | - | - |
| 1778058217 | 3.33° C | 56% | 1016.7 hPa | 0 mm | 4.47 m/s, 162° | - | - |
| 1778057917 | 3.33° C | 56% | 1016.8 hPa | 0 mm | 5.36 m/s, 198° | - | - |
| 1778057615 | 3.33° C | 56% | 1016.9 hPa | 0 mm | 3.13 m/s, 208° | - | - |
| 1778057315 | 3.33° C | 56% | 1016.9 hPa | 0 mm | 4.02 m/s, 201° | - | - |
* Rain latest hour (hover to see other rain measurements)
** Current wind speed in m/s (hover to see current wind gust speed)